Regional Weather Roundup
Issued by NWS Northern Indiana

Home | Current Version | Previous Version | Text Only | Print | Product List | Glossary Off
Versions: 1 2 3 4 5 6 7 8 9 10 11 12 13 14 15 16 17 18 19 20 21 22 23 24 25 26 27 28 29 30 31 32 33 34 35 36 37 38 39 40 41 42 43 44 45 46 47 48 49 50

279
ASUS43 KIWX 251710
RWRIWX

KIWX WEATHER ROUNDUP
NATIONAL WEATHER SERVICE NORTHERN INDIANA
1200 PM EST SUN FEB 25 2018

NOTE: "FAIR" INDICATES FEW OR NO CLOUDS BELOW 12,000 FEET WITH NO
SIGNIFICANT WEATHER AND/OR OBSTRUCTIONS TO VISIBILITY.

* THESE STATIONS ARE NOT UNDER NWS QUALITY CONTROL. THEY ALSO MAY NOT
  REPORT WEATHER SUCH AS PRECIPITATION OR FOG.

INZ001>027-251800-
NORTHERN INDIANA

CITY           SKY/WX    TMP DP  RH WIND       PRES   REMARKS
GARY*          MOSUNNY   41  25  52 MISG      29.93R
VALPARAISO     FAIR      40  27  59 W25G33    29.95R
MICHIGAN CITY* PTSUNNY   39  28  65 SW22G28   29.94R
LAPORTE*       PTSUNNY   37  28  68 W14G25    29.94R
SOUTH BEND     PTSUNNY   39  27  62 W26G35    29.93R
GOSHEN         CLOUDY    38  27  64 SW22G29   29.93R
MONTICELLO*    CLOUDY    38  29  71 SW21G26   30.00R
LOGANSPORT*    CLOUDY    37  30  75 SW20G28   30.01R
ROCHESTER*     CLOUDY    39  32  75 SW18G26   29.98R
WARSAW*        CLOUDY    36  28  75 E16G24    29.96R
AUBURN*        CLOUDY    37  30  75 SW14G25   29.96R
FORT WAYNE     CLOUDY    39  30  70 SW23G32   29.98R
HUNTINGTON*    CLOUDY    37  28  71 W21G28    29.99R
PERU/GRISSOM   CLOUDY    38  32  78 W20G31    29.99R
MARION*        CLOUDY    37  31  79 SW18G28   30.03R

$$
INZ028>050-251800-
CENTRAL INDIANA

CITY           SKY/WX    TMP DP  RH WIND       PRES   REMARKS
LAFAYETTE      CLOUDY    39  29  67 W12G23    30.03R
KOKOMO*        CLOUDY    38  30  73 SW26      30.02R
MUNCIE*        PTSUNNY   42  32  67 W15G23    30.01R
INDIANAPOLIS   PTSUNNY   43  32  65 W20G26    30.05R

$$
MIZ043>046-050>051-056>058-064>065-071>073-077>080-251800-
SOUTHWEST LOWER MICHIGAN

CITY           SKY/WX    TMP DP  RH WIND       PRES   REMARKS
BATTLE CREEK     N/A     40  26  57 SW28G33     N/A
BENTON HARBOR  FAIR      39  26  59 SW26G35   29.91R
COLDWATER*     PTSUNNY   39  29  68 W15G26    29.89R
HILLSDALE*     CLOUDY    36  28  75 SW14G28   29.87R
HOLLAND        FAIR      39  28  64 W31G39    29.85R
GRAND RAPIDS   PTSUNNY   37  27  67 W32G38    29.81R
KALAMAZOO      PTSUNNY   40  25  55 W23G33    29.88R
STURGIS*       CLOUDY    38  29  69 W18G28    29.90R
THREE RIVERS*  PTSUNNY   39  27  63 W16G22    29.90R

$$
OHZ001>008-015>018-024>025-251800-
NORTHWEST OHIO

CITY           SKY/WX    TMP DP  RH WIND       PRES   REMARKS
WAUSEON*       CLOUDY    41  34  75 W25G35    29.91R
DEFIANCE       CLOUDY    39  29  67 W20G29    29.95R
FINDLAY        FAIR      43  32  65 W26       29.94R
TOLEDO EXPRESS CLOUDY    41  31  67 W22G35    29.91R
TOLEDO METCALF FAIR      42  30  62 W22G35    29.92R
LIMA           FAIR      41  36  82 W22       29.97R

$$
AND FOR LAKE MICHIGAN COASTAL AND OPEN LAKE BUOY OBSERVATIONS

STATION/POSITION TEMP    WIND        PRES    VSBY  WAVE
                 AIR SEA DIR/SP/G                  HT/PER
                 (F)     (DEG/KT/KT) (MB)    (MI)  (FT/S)
CALUMET HARBOR    38     220/ 13/ 24 1012.5R
MICHIGAN CITY     36     220/ 21/ 24   N/A
BURNS HARBOR      38     230/ 17/ 27 1013.9R
SAINT JOSEPH      35     220/ 18/ 22 1012.9

$$
&&




USA.gov is the U.S. government's official web portal to all federal, state and local government web resources and services.